TimeCDT,TemperatureF,Dew PointF,Humidity,Sea Level PressureIn,VisibilityMPH,Wind Direction,Wind SpeedMPH,Gust SpeedMPH,PrecipitationIn,Events,Conditions,WindDirDegrees,DateUTC
12:53 AM,75.0,71.1,87,30.01,10.0,Calm,Calm,-,N/A,,Clear,0,2013-06-20 05:53:00
1:53 AM,75.0,72.0,90,30.00,10.0,SSE,5.8,-,N/A,,Clear,150,2013-06-20 06:53:00
2:53 AM,73.9,72.0,93,29.99,10.0,SE,3.5,-,N/A,,Clear,130,2013-06-20 07:53:00
3:53 AM,73.9,72.0,93,30.00,10.0,Calm,Calm,-,N/A,,Clear,0,2013-06-20 08:53:00
4:53 AM,73.0,71.1,93,30.00,6.0,Calm,Calm,-,N/A,,Clear,0,2013-06-20 09:53:00
5:53 AM,73.0,71.1,93,30.02,6.0,Calm,Calm,-,N/A,,Partly Cloudy,0,2013-06-20 10:53:00
6:53 AM,73.9,72.0,93,30.04,7.0,SE,4.6,-,N/A,,Scattered Clouds,130,2013-06-20 11:53:00
7:53 AM,75.9,73.0,91,30.07,9.0,SSE,4.6,-,N/A,,Mostly Cloudy,150,2013-06-20 12:53:00
8:53 AM,79.0,73.9,84,30.08,10.0,South,6.9,-,N/A,,Scattered Clouds,190,2013-06-20 13:53:00
9:43 AM,82.4,73.4,74,30.10,10.0,SW,6.9,-,N/A,,Mostly Cloudy,230,2013-06-20 14:43:00
9:53 AM,82.0,73.9,76,30.09,10.0,WSW,8.1,-,N/A,,Mostly Cloudy,240,2013-06-20 14:53:00
10:50 AM,84.2,73.4,70,30.10,10.0,WSW,3.5,-,N/A,,Scattered Clouds,240,2013-06-20 15:50:00
10:53 AM,84.9,73.0,67,30.09,10.0,West,4.6,-,N/A,,Scattered Clouds,260,2013-06-20 15:53:00
11:53 AM,84.9,71.1,63,30.09,10.0,WSW,4.6,-,N/A,,Scattered Clouds,250,2013-06-20 16:53:00
12:53 PM,88.0,71.1,57,30.08,10.0,SW,10.4,-,N/A,,Mostly Cloudy,220,2013-06-20 17:53:00
1:53 PM,89.1,71.1,55,30.06,10.0,West,4.6,-,N/A,,Scattered Clouds,260,2013-06-20 18:53:00
2:53 PM,91.0,72.0,53,30.04,10.0,Variable,3.5,-,N/A,,Clear,0,2013-06-20 19:53:00
3:53 PM,90.0,72.0,55,30.03,10.0,South,6.9,-,N/A,,Mostly Cloudy,190,2013-06-20 20:53:00
4:53 PM,89.1,72.0,57,30.02,10.0,ESE,4.6,-,N/A,,Mostly Cloudy,120,2013-06-20 21:53:00
5:53 PM,90.0,71.1,54,30.00,10.0,ESE,4.6,-,N/A,,Partly Cloudy,120,2013-06-20 22:53:00
6:53 PM,89.1,71.1,55,30.00,10.0,SE,5.8,-,N/A,,Clear,130,2013-06-20 23:53:00
7:53 PM,86.0,71.1,61,30.00,10.0,SE,5.8,-,N/A,,Clear,140,2013-06-21 00:53:00
8:53 PM,82.9,71.1,67,30.01,10.0,SE,5.8,-,N/A,,Clear,140,2013-06-21 01:53:00
9:53 PM,82.0,71.1,69,30.02,10.0,SE,5.8,-,N/A,,Clear,130,2013-06-21 02:53:00
10:53 PM,81.0,72.0,74,30.04,10.0,SE,4.6,-,N/A,,Clear,140,2013-06-21 03:53:00
11:53 PM,79.0,73.0,82,30.05,10.0,SE,6.9,-,N/A,,Clear,140,2013-06-21 04:53:00